Weather History for KHOU - January, 2012

Change the Weather History Date:

Friday, January 20, 2012

  Actual Average Record
Temperature  
Mean Temperature 74 °F 53 °F  
Max Temperature 81 °F 63 °F 81 °F (2012)
Min Temperature 66 °F 43 °F 20 °F (1985)
Degree Days  
Heating Degree Days 0 12  
Month to date heating degree days 150 258  
Since 1 July heating degree days 670 797  
Cooling Degree Days 6    
Growing Degree Days 21 (Base 50)    
Moisture  
Dew Point 65 °F    
Average Humidity 72    
Maximum Humidity 93    
Minimum Humidity 51    
Precipitation  
Precipitation 0.00 in 0.11 in 1.83 in (1958)
Month to date precipitation 1.20 2.14  
Year to date precipitation 1.20 2.14  
Sea Level Pressure  
Sea Level Pressure 29.89 in    
Wind  
Wind Speed 10 mph (South)    
Max Wind Speed 20 mph    
Max Gust Speed 31 mph    
Visibility 9 miles    
Events      
T = Trace of Precipitation, MM = Missing Value Source: NWS Daily Summary

Daily Weather History Graph

Daily Weather History Graph

Search for Another Location

Airport or City:

Trip Planner

Search our weather history database for the weather conditions in past years. The results will help you decide how hot, cold, wet, or windy it might be!

Date:

Astronomy

Jan. 20, 2012 Rise Set
Actual Time 7:16 AM CST 5:48 PM CST
Civil Twilight 6:50 AM CST 6:13 PM CST
Nautical Twilight 6:21 AM CST 6:42 PM CST
Astronomical Twilight 5:52 AM CST 7:11 PM CST
Moon 4:49 AM CST (1/20) 3:25 PM CST (1/20)
Length of Visible Light 11h 23m
Length of Day
10h 32m
Waning Crescent, 8% of the Moon is Illuminated
Jan 20
Waning Crescent
Jan 23
New
Jan 30
First Quarter
Feb 7
Full
Feb 14
Last Quarter

Hourly Weather History & Observations

Time (CST) Temp. Dew Point Humidity Pressure Visibility Wind Dir Wind Speed Gust Speed Precip Events Conditions
12:53 AM 64.9 °F 63.0 °F 93% 29.92 in 9.0 mi South 6.9 mph - N/A   Partly Cloudy
1:42 AM 64.4 °F 62.6 °F 94% 29.90 in 8.0 mi SSW 6.9 mph - N/A   Mostly Cloudy
1:53 AM 64.9 °F 63.0 °F 93% 29.92 in 9.0 mi South 6.9 mph - N/A   Mostly Cloudy
2:53 AM 66.0 °F 64.9 °F 96% 29.91 in 8.0 mi South 9.2 mph - N/A   Overcast
3:18 AM 66.2 °F 64.4 °F 94% 29.88 in 8.0 mi South 9.2 mph - N/A   Overcast
3:53 AM 66.9 °F 64.9 °F 93% 29.89 in 6.0 mi South 6.9 mph - N/A   Overcast
4:30 AM 66.2 °F 64.4 °F 94% 29.87 in 4.0 mi South 6.9 mph - N/A   Overcast
4:53 AM 66.9 °F 64.9 °F 93% 29.89 in 5.0 mi South 6.9 mph - N/A   Overcast
5:14 AM 66.2 °F 66.2 °F 100% 29.88 in 7.0 mi South 5.8 mph - N/A   Overcast
5:53 AM 68.0 °F 66.0 °F 93% 29.90 in 10.0 mi South 9.2 mph - N/A   Overcast
6:53 AM 68.0 °F 66.0 °F 93% 29.91 in 10.0 mi South 11.5 mph - N/A   Overcast
7:53 AM 69.1 °F 66.9 °F 93% 29.91 in 10.0 mi South 10.4 mph 17.3 mph N/A   Overcast
8:26 AM 69.8 °F 66.2 °F 88% 29.91 in 10.0 mi South 6.9 mph - N/A   Overcast
8:49 AM 69.8 °F 66.2 °F 88% 29.92 in 10.0 mi South 9.2 mph - N/A   Overcast
8:53 AM 70.0 °F 66.9 °F 90% 29.94 in 10.0 mi South 11.5 mph - N/A   Overcast
9:53 AM 72.0 °F 66.9 °F 84% 29.95 in 10.0 mi South 13.8 mph 23.0 mph N/A   Overcast
10:53 AM 73.9 °F 64.9 °F 73% 29.95 in 10.0 mi SSW 23.0 mph 29.9 mph N/A   Mostly Cloudy
11:02 AM 75.2 °F 64.4 °F 69% 29.93 in 10.0 mi SSW 24.2 mph 29.9 mph N/A   Mostly Cloudy
11:53 AM 75.9 °F 64.0 °F 67% 29.91 in 10.0 mi SSW 18.4 mph 27.6 mph N/A   Mostly Cloudy
12:53 PM 78.1 °F 64.0 °F 62% 29.88 in 10.0 mi SSW 16.1 mph 31.1 mph N/A   Mostly Cloudy
1:53 PM 78.1 °F 64.0 °F 62% 29.87 in 10.0 mi SSW 18.4 mph 27.6 mph N/A   Mostly Cloudy
2:53 PM 78.1 °F 64.0 °F 62% 29.86 in 10.0 mi SSW 17.3 mph 23.0 mph N/A   Scattered Clouds
3:53 PM 77.0 °F 64.9 °F 66% 29.85 in 10.0 mi South 15.0 mph 31.1 mph N/A   Scattered Clouds
4:53 PM 75.0 °F 66.0 °F 73% 29.85 in 10.0 mi South 11.5 mph 26.5 mph N/A   Mostly Cloudy
5:53 PM 73.0 °F 66.9 °F 81% 29.86 in 10.0 mi South 12.7 mph 20.7 mph N/A   Overcast
6:53 PM 72.0 °F 66.9 °F 84% 29.86 in 10.0 mi South 9.2 mph - N/A   Mostly Cloudy
7:15 PM 71.6 °F 66.2 °F 83% 29.84 in 10.0 mi South 12.7 mph - N/A   Mostly Cloudy
7:53 PM 72.0 °F 66.9 °F 84% 29.88 in 10.0 mi SSW 16.1 mph 21.9 mph N/A   Overcast
8:53 PM 71.1 °F 66.9 °F 87% 29.88 in 10.0 mi South 10.4 mph - N/A   Overcast
9:53 PM 72.0 °F 66.9 °F 84% 29.88 in 10.0 mi SSW 13.8 mph 21.9 mph N/A   Overcast
10:53 PM 71.1 °F 66.9 °F 87% 29.90 in 10.0 mi SSW 13.8 mph - N/A   Overcast
11:53 PM 70.0 °F 66.0 °F 87% 29.90 in 10.0 mi South 10.4 mph - N/A   Scattered Clouds